STARLINK-31973, 59943

Orbit data source: Space-Track

STARLINK-31973, 59943 is a payload satellite owned by SpaceX/Seattle (US) in LEO that was launched on Sat, 01 Jun 2024 UTC via an FALCON 9 launch vehicle from the Air Force Eastern Test Range (AFETR). Payload-class satellites include a variety of spacecraft equipped with specific instruments for various scientific and technological missions. These include communications satellites like Starlink; space stations such as the ISS; scientific satellites like the Hubble; Earth observation satellites from companies like Planet Labs, Umbra, and HawkEye 360; GPS; miniature CubeSats for education and research; and military/defense satellites.

Loading next visibility...
Identifier
59943, 2024-106X
Orbit
LEO
Country
Flag of USUS
Related business
Manufacturer
SpaceX/Seattle
Mission
Operational Commercial Communications
Bus & Motor
STARLINK V2M, Unknown motor
Mass
730 kg wet, ~700 kg dry
Launch date (UTC)
2024-06-01 (2 years ago)
Launch vehicle
FALCON 9
Launch site
Air Force Eastern Test Range (AFETR)
Object type
Payload
Rocket body
Debris
Shape & HBR
Box + 2 Pan, 17.7 m
Radar Cross Section
33.884 m², Large (>1 m²)

Expand to show TLE details & history
Last TLE update: 2 days ago

TLE from 2 days ago
0 STARLINK-31973
1 59943U 24106X   26171.17104101  .00000193  00000-0  16555-4 0  9994
2 59943  43.0033 113.9654 0001717 277.4104  82.6552 15.27577363116197
Epoch: 2026-06-20T04:06Z
TLE epoch observation values (Epoch: 2026-06-20T04:06:17.943Z)
Latitude
-0.00005°
Longitude
144.00109°
Altitude
482.682 km
Speed
7.626 km/s
True Right ascension
07h 35m 51s
True Declination
0° 00' 00"
Sunlit
Object was in daylight at epoch
Visualization orbit readout
Latitude
Unknown
Longitude
Unknown
Altitude
Unknown
Speed
Unknown
Apparent Right ascension
Unknown
Apparent Declination
Unknown
Sunlit
N/A
Visualization observer readout
Local Sidereal Time
21:42:51
Azimuth
Unknown
Elevation
Unknown
Doppler factor
Unknown
Orbital elements
Apogee altitude
486.18 km
Perigee altitude
483.823 km
Semi-major axis
6,863.139 km
Eccentricity
0.00017
Inclination
43.0033°
RAAN
113.9654°
Arg. of periapsis
277.4104°
True anomaly
82.67471°
Mean anomaly
82.6552°
Eccentric anomaly
82.66496°
Mean motion
3.81732 °/min
Orbital period
94.31 mins
BSTAR
0.000016555
Loading maneuver chart data...
Computing Atmospheric mass density...
Loading historical data...
Loading historical data...
Loading historical data...
Loading historical data...
Loading historical data...
Loading historical data...
Loading historical data...

Documentation

Showing up to 5 results
|